North Myrtle Beach, SC

4:10 PM EST on November 22, 2019 (GMT -0500)
Grand Strand

Weather History for KCRE - August, 2019

Change the Weather History Date:

Saturday, August 10, 2019

  Actual Average Record
Temperature  
Mean Temperature 84 °F 79 °F  
Max Temperature 91 °F 86 °F 95 °F (1991)
Min Temperature 77 °F 72 °F 61 °F (2002)
Degree Days  
Heating Degree Days 0 0  
Month to date heating degree days 0 0  
Since 1 June heating degree days 0 0  
Since 1 July heating degree days 0 0  
Cooling Degree Days 19 14  
Month to date cooling degree days 163 145  
Year to date cooling degree days 1455 1190  
Since 1 June cooling degree days 1062 978  
Growing Degree Days 34 (Base 50)    
Moisture  
Dew Point 80 °F    
Average Humidity 85    
Maximum Humidity 100    
Minimum Humidity 70    
Precipitation  
Precipitation 0.00 in 0.21 in 4.45 in (1969)
Month to date precipitation 0.48 2.07  
Year to date precipitation 23.49 30.01  
Sea Level Pressure  
Sea Level Pressure 29.88 in    
Wind  
Wind Speed 9 mph (SSW)    
Max Wind Speed 20 mph    
Max Gust Speed 24 mph    
Visibility 8 miles    
Events Fog , Thunderstorm    
T = Trace of Precipitation, MM = Missing Value Source: NWS Daily Summary

Daily Weather History Graph

Daily Weather History Graph

Search for Another Location

Airport or City:

Astronomy

Aug. 10, 2019 Rise Set
Actual Time 6:33 AM EDT 8:07 PM EDT
Civil Twilight 6:06 AM EDT 8:33 PM EDT
Nautical Twilight 5:34 AM EDT 9:05 PM EDT
Astronomical Twilight 5:00 AM EDT 9:39 PM EDT
Moon 4:42 PM EDT (8/10) 2:12 AM EDT (8/10)
Length of Visible Light 14h 27m
Length of Day
13h 34m
Waxing Gibbous, 79% of the Moon is Illuminated
Aug 10
Waxing Gibbous
Aug 15
Full
Aug 23
Last Quarter
Aug 30
New
Sep 5
First Quarter

Hourly Weather History & Observations

Time (EDT) Temp. Heat Index Dew Point Humidity Pressure Visibility Wind Dir Wind Speed Gust Speed Precip Events Conditions
12:53 AM 82.0 °F 91.6 °F 79.0 °F 90% 29.90 in 10.0 mi SW 5.8 mph - N/A   Clear
1:53 AM 80.1 °F 86.7 °F 79.0 °F 96% 29.89 in 8.0 mi Calm Calm - N/A   Clear
2:53 AM 79.0 °F - 77.0 °F 94% 29.88 in 9.0 mi Calm Calm - N/A   Clear
3:53 AM 78.1 °F - 78.1 °F 100% 29.87 in 8.0 mi Calm Calm - N/A   Clear
4:53 AM 80.1 °F 86.7 °F 79.0 °F 96% 29.88 in 9.0 mi SW 5.8 mph - N/A   Clear
5:23 AM 82.0 °F 93.7 °F 81.0 °F 97% 29.88 in 7.0 mi SW 6.9 mph - N/A   Partly Cloudy
5:53 AM 81.0 °F 89.9 °F 80.1 °F 97% 29.88 in 6.0 mi SW 4.6 mph - N/A   Clear
6:18 AM 80.1 °F 87.4 °F 80.1 °F 100% 29.87 in 1.8 mi Calm Calm - N/A   Clear
6:27 AM 80.1 °F 86.7 °F 79.0 °F 96% 29.87 in 0.8 mi Calm Calm - N/A   Mist
6:36 AM 79.0 °F - 78.1 °F 97% 29.88 in 0.2 mi Calm Calm - N/A Fog Fog
6:51 AM 78.8 °F - 78.8 °F 100% 29.88 in 0.2 mi Calm Calm - N/A Fog Fog
6:53 AM 79.0 °F - 79.0 °F 100% 29.88 in 0.2 mi Calm Calm - N/A Fog Fog
6:58 AM 78.1 °F - 78.1 °F 100% 29.88 in 4.0 mi Calm Calm - N/A   Clear
7:53 AM 82.0 °F 94.7 °F 82.0 °F 100% 29.89 in 7.0 mi SSW 3.5 mph - N/A   Clear
8:41 AM 84.9 °F 101.8 °F 82.0 °F 91% 29.90 in 10.0 mi South 9.2 mph - N/A   Partly Cloudy
8:53 AM 86.0 °F 104.1 °F 82.0 °F 88% 29.91 in 10.0 mi SSW 9.2 mph - N/A   Clear
9:45 AM 87.1 °F 106.2 °F 82.0 °F 85% 29.91 in 10.0 mi SSW 9.2 mph - N/A   Partly Cloudy
9:53 AM 87.1 °F 106.2 °F 82.0 °F 85% 29.92 in 10.0 mi SSW 8.1 mph - N/A   Clear
10:53 AM 89.1 °F 106.4 °F 80.1 °F 75% 29.92 in 10.0 mi South 6.9 mph - N/A   Clear
11:53 AM 90.0 °F 104.5 °F 78.1 °F 68% 29.92 in 10.0 mi South 9.2 mph - N/A   Clear
12:53 PM 89.1 °F 106.4 °F 80.1 °F 75% 29.91 in 10.0 mi South 11.5 mph - N/A   Clear
1:53 PM 90.0 °F 113.2 °F 82.9 °F 80% 29.89 in 10.0 mi South 11.5 mph - N/A   Clear
2:53 PM 89.1 °F 111.4 °F 82.9 °F 82% 29.88 in 10.0 mi South 15.0 mph - N/A   Clear
3:07 PM 89.1 °F 109.9 °F 82.0 °F 80% 29.87 in 10.0 mi South 13.8 mph - N/A Thunderstorm Clear
3:22 PM 89.1 °F 104.4 °F 79.0 °F 72% 29.86 in 10.0 mi South 13.8 mph - N/A   Clear
3:53 PM 88.0 °F 103.1 °F 79.0 °F 75% 29.86 in 10.0 mi South 11.5 mph - N/A   Clear
4:06 PM 88.0 °F 106.2 °F 81.0 °F 80% 29.85 in 10.0 mi South 11.5 mph - N/A Thunderstorm Partly Cloudy
4:21 PM 89.1 °F 106.4 °F 80.1 °F 75% 29.85 in 10.0 mi SSW 10.4 mph - N/A   Partly Cloudy
4:53 PM 89.1 °F 106.4 °F 80.1 °F 75% 29.84 in 10.0 mi SSW 15.0 mph 20.7 mph N/A   Clear
5:53 PM 89.1 °F 107.8 °F 81.0 °F 77% 29.84 in 10.0 mi SSW 11.5 mph - N/A   Partly Cloudy
6:53 PM 88.0 °F 104.3 °F 80.1 °F 77% 29.85 in 10.0 mi SSW 16.1 mph - N/A   Clear
7:53 PM 86.0 °F 102.5 °F 81.0 °F 85% 29.86 in 10.0 mi SSW 13.8 mph - N/A   Partly Cloudy
8:53 PM 84.9 °F 100.3 °F 81.0 °F 88% 29.88 in 10.0 mi SSW 10.4 mph - N/A   Partly Cloudy
9:53 PM 84.9 °F 101.8 °F 82.0 °F 91% 29.89 in 10.0 mi SSW 15.0 mph - N/A   Scattered Clouds
10:53 PM 84.9 °F 100.3 °F 81.0 °F 88% 29.90 in 10.0 mi SW 12.7 mph - N/A   Clear
11:53 PM 84.9 °F 97.5 °F 79.0 °F 82% 29.89 in 10.0 mi WSW 9.2 mph - N/A   Clear